Glens Falls, NY

8:23 AM EST on December 08, 2019 (GMT -0500)
Bennett Memorial

Weather History for KGFL - October, 2019

Change the Weather History Date:

Monday, October 7, 2019

  Actual Average Record
Temperature  
Mean Temperature 58 °F 50 °F  
Max Temperature 64 °F 62 °F 87 °F (1963)
Min Temperature 52 °F 38 °F 24 °F (1964)
Degree Days  
Heating Degree Days 7 15  
Month to date heating degree days 97 99  
Since 1 July heating degree days 319 384  
Cooling Degree Days 0 0  
Month to date cooling degree days 0 0  
Year to date cooling degree days 416 351  
Growing Degree Days 8 (Base 50)    
Moisture  
Dew Point 57 °F    
Average Humidity 94    
Maximum Humidity 100    
Minimum Humidity 87    
Precipitation  
Precipitation 1.03 in 0.11 in 3.57 in (1972)
Month to date precipitation 1.42 0.82  
Year to date precipitation 32.27 30.01  
Sea Level Pressure  
Sea Level Pressure 30.09 in    
Wind  
Wind Speed 5 mph (SSW)    
Max Wind Speed 15 mph    
Max Gust Speed 21 mph    
Visibility 6 miles    
Events Rain    
T = Trace of Precipitation, MM = Missing Value Source: NWS Daily Summary

Daily Weather History Graph

Daily Weather History Graph

Search for Another Location

Airport or City:

Astronomy

Oct. 07, 2019 Rise Set
Actual Time 6:58 AM EDT 6:25 PM EDT
Civil Twilight 6:29 AM EDT 6:53 PM EDT
Nautical Twilight 5:56 AM EDT 7:26 PM EDT
Astronomical Twilight 5:23 AM EDT 8:00 PM EDT
Moon 3:57 PM EDT (10/7) 12:36 AM EDT (10/7)
Length of Visible Light 12h 23m
Length of Day
11h 26m
Waxing Gibbous, 69% of the Moon is Illuminated
Oct 7
Waxing Gibbous
Oct 13
Full
Oct 21
Last Quarter
Oct 27
New
Nov 4
First Quarter

Hourly Weather History & Observations

Time (EDT) Temp. Dew Point Humidity Pressure Visibility Wind Dir Wind Speed Gust Speed Precip Events Conditions
12:03 AM 61.0 °F 59.0 °F 93% 30.13 in 10.0 mi SW 5.8 mph - N/A   Overcast
12:15 AM 61.0 °F 59.0 °F 93% 30.13 in 10.0 mi SSW 5.8 mph - N/A   Overcast
12:53 AM 61.0 °F 59.0 °F 93% 30.12 in 10.0 mi SSW 4.6 mph - N/A   Overcast
1:53 AM 61.0 °F 59.0 °F 93% 30.10 in 10.0 mi SSW 4.6 mph - N/A   Overcast
2:38 AM 62.1 °F 60.1 °F 93% 30.07 in 10.0 mi South 6.9 mph - 0.00 in Rain Light Rain
2:53 AM 62.1 °F 60.1 °F 93% 30.06 in 10.0 mi South 9.2 mph - 0.00 in Rain Light Rain
3:37 AM 63.0 °F 60.1 °F 90% 30.05 in 10.0 mi South 4.6 mph - 0.00 in   Overcast
3:53 AM 63.0 °F 60.1 °F 90% 30.05 in 10.0 mi South 8.1 mph - 0.00 in   Overcast
4:37 AM 63.0 °F 60.1 °F 90% 30.04 in 10.0 mi SSW 8.1 mph - N/A   Overcast
4:53 AM 63.0 °F 60.1 °F 90% 30.04 in 10.0 mi SSW 5.8 mph - N/A   Overcast
5:31 AM 63.0 °F 60.1 °F 90% 30.03 in 10.0 mi SSW 5.8 mph - 0.00 in Rain Light Rain
5:53 AM 64.0 °F 60.1 °F 87% 30.03 in 10.0 mi SSW 5.8 mph - 0.00 in   Overcast
6:12 AM 64.0 °F 60.1 °F 87% 30.03 in 9.0 mi SSW 6.9 mph - 0.01 in Rain Light Rain
6:53 AM 63.0 °F 61.0 °F 93% 30.05 in 3.0 mi SW 6.9 mph - 0.06 in Rain Light Rain
6:59 AM 62.1 °F 61.0 °F 96% 30.05 in 1.8 mi SW 4.6 mph - 0.03 in Rain Rain
7:06 AM 62.1 °F 61.0 °F 96% 30.05 in 3.0 mi WSW 5.8 mph - 0.04 in Rain Light Rain
7:26 AM 62.1 °F 61.0 °F 96% 30.05 in 2.5 mi WSW 4.6 mph - 0.06 in Rain Rain
7:37 AM 62.1 °F 61.0 °F 96% 30.06 in 3.0 mi Calm Calm - 0.07 in Rain Light Rain
7:48 AM 57.2 °F 55.4 °F 94% 30.06 in 2.5 mi NNW 13.8 mph - 0.09 in Rain Light Rain
7:53 AM 57.9 °F 55.0 °F 90% 30.07 in 1.8 mi NNW 9.2 mph 19.6 mph 0.10 in Rain Rain
8:07 AM 57.0 °F 55.0 °F 93% 30.06 in 2.5 mi NNW 9.2 mph - 0.01 in Rain Light Rain
8:21 AM 57.0 °F 55.0 °F 93% 30.06 in 3.0 mi NNW 6.9 mph - 0.02 in Rain Light Rain
8:53 AM 57.0 °F 55.0 °F 93% 30.08 in 5.0 mi NW 6.9 mph - 0.06 in Rain Rain
9:05 AM 57.0 °F 55.0 °F 93% 30.07 in 2.5 mi North 4.6 mph - 0.05 in Rain Rain
9:13 AM 57.9 °F 55.0 °F 90% 30.07 in 5.0 mi North 3.5 mph - 0.05 in Rain Light Rain
9:32 AM 57.9 °F 55.0 °F 90% 30.08 in 8.0 mi NNE 3.5 mph - 0.06 in Rain Light Rain
9:53 AM 57.9 °F 55.0 °F 90% 30.10 in 3.0 mi NNW 3.5 mph - 0.11 in Rain Rain
10:02 AM 57.9 °F 55.0 °F 90% 30.10 in 2.0 mi NW 3.5 mph - 0.04 in Rain Rain
10:09 AM 57.0 °F 55.0 °F 93% 30.11 in 2.5 mi Variable 4.6 mph - 0.06 in Rain Rain
10:17 AM 57.9 °F 55.9 °F 93% 30.10 in 3.0 mi North 3.5 mph - 0.09 in Rain Rain
10:53 AM 57.0 °F 55.0 °F 93% 30.09 in 4.0 mi ENE 3.5 mph - 0.15 in Rain Light Rain
11:09 AM 57.9 °F 55.9 °F 93% 30.10 in 3.0 mi Calm Calm - 0.02 in Rain Light Rain
11:26 AM 57.0 °F 55.0 °F 93% 30.10 in 3.0 mi Calm Calm - 0.04 in Rain Light Rain
11:37 AM 57.0 °F 55.9 °F 96% 30.10 in 2.0 mi Calm Calm - 0.06 in Rain Light Rain
11:53 AM 57.0 °F 55.9 °F 96% 30.11 in 3.0 mi Calm Calm - 0.09 in Rain Light Rain
12:03 PM 57.0 °F 55.9 °F 96% 30.10 in 3.0 mi Calm Calm - 0.00 in Rain Light Rain
12:20 PM 57.9 °F 55.9 °F 93% 30.10 in 3.0 mi East 3.5 mph - 0.02 in Rain Light Rain
12:25 PM 57.9 °F 55.9 °F 93% 30.10 in 2.5 mi East 3.5 mph - 0.03 in Rain Light Rain
12:53 PM 57.9 °F 55.9 °F 93% 30.10 in 4.0 mi Calm Calm - 0.07 in Rain Light Rain
1:03 PM 57.9 °F 55.9 °F 93% 30.09 in 3.0 mi Calm Calm - 0.02 in Rain Light Rain
1:31 PM 59.0 °F 57.0 °F 93% 30.08 in 5.0 mi Calm Calm - 0.04 in Rain Light Rain
1:53 PM 59.0 °F 57.0 °F 93% 30.09 in 5.0 mi SSE 4.6 mph - 0.07 in Rain Light Rain
2:09 PM 59.0 °F 57.0 °F 93% 30.08 in 5.0 mi SSE 4.6 mph - 0.02 in Rain Light Rain
2:17 PM 57.9 °F 55.9 °F 93% 30.08 in 6.0 mi SSE 4.6 mph - 0.03 in Rain Light Rain
2:28 PM 57.9 °F 55.9 °F 93% 30.09 in 5.0 mi South 4.6 mph - 0.04 in Rain Light Rain
2:53 PM 57.9 °F 57.0 °F 97% 30.10 in 4.0 mi South 4.6 mph - 0.08 in Rain Light Rain
3:07 PM 57.9 °F 57.0 °F 97% 30.09 in 5.0 mi SSE 5.8 mph - 0.02 in Rain Light Rain
3:15 PM 57.9 °F 57.0 °F 97% 30.09 in 6.0 mi SSE 4.6 mph - 0.03 in Rain Light Rain
3:53 PM 57.9 °F 57.0 °F 97% 30.11 in 5.0 mi South 4.6 mph - 0.09 in Rain Light Rain
4:53 PM 57.9 °F 57.0 °F 97% 30.10 in 5.0 mi South 5.8 mph - 0.07 in Rain Light Rain
5:01 PM 57.9 °F 57.0 °F 97% 30.10 in 9.0 mi SSE 5.8 mph - 0.00 in Rain Light Rain
5:13 PM 57.9 °F 57.0 °F 97% 30.10 in 9.0 mi South 5.8 mph - 0.01 in Rain Light Rain
5:36 PM 57.9 °F 57.0 °F 97% 30.10 in 10.0 mi South 4.6 mph - 0.01 in   Overcast
5:48 PM 57.2 °F 57.2 °F 100% 30.10 in 10.0 mi South 6.9 mph - 0.01 in   Overcast
5:53 PM 57.9 °F 57.0 °F 97% 30.11 in 10.0 mi South 6.9 mph - 0.01 in   Overcast
6:14 PM 57.9 °F 57.0 °F 97% 30.11 in 10.0 mi South 5.8 mph - 0.00 in Rain Light Rain
6:25 PM 57.9 °F 57.0 °F 97% 30.12 in 7.0 mi SSW 3.5 mph - 0.00 in Rain Light Rain
6:53 PM 57.9 °F 57.0 °F 97% 30.14 in 6.0 mi WSW 3.5 mph - 0.03 in Rain Light Rain
7:07 PM 57.9 °F 55.9 °F 93% 30.13 in 6.0 mi SSW 3.5 mph - 0.02 in Rain Light Rain
7:21 PM 57.0 °F 54.0 °F 89% 30.12 in 6.0 mi SSW 6.9 mph - 0.04 in Rain Light Rain
7:31 PM 55.9 °F 52.0 °F 87% 30.13 in 10.0 mi SSW 5.8 mph - 0.04 in Rain Light Rain
7:53 PM 55.0 °F 53.1 °F 93% 30.13 in 10.0 mi South 4.6 mph - 0.04 in   Overcast
8:30 PM 55.0 °F 53.1 °F 93% 30.13 in 10.0 mi Calm Calm - N/A   Scattered Clouds
8:53 PM 54.0 °F 52.0 °F 93% 30.15 in 10.0 mi SSW 4.6 mph - N/A   Partly Cloudy
9:53 PM 54.0 °F 52.0 °F 93% 30.19 in 10.0 mi South 5.8 mph - N/A   Overcast
10:53 PM 53.1 °F 52.0 °F 96% 30.18 in 9.0 mi SSW 3.5 mph - 0.00 in   Overcast
11:53 PM 53.1 °F 52.0 °F 96% 30.18 in 8.0 mi Calm Calm - 0.00 in   Partly Cloudy